Location: Newark
(7.1028°S, 35.3258°W)
Time: 19:22:48
(UTC+00:00)

Vanguard 2 Rocket - Visible Passes

Search period start: 21 February 2020 00:00
Search period end: 02 March 2020 00:00
Orbit: 554 x 3327 km, 32.9° (Epoch: 21 February)

Date Brightness Start Highest point End Pass type
(mag) Time Alt. Az. Time Alt. Az. Time Alt. Az.
21 Feb 6.1 07:28:07 21° NW 07:30:37 67° NE 07:35:03 10° ESE visible
21 Feb 10.5 21:00:29 10° W 21:16:31 29° NW 21:30:23 10° NNE visible
22 Feb 7.6 06:32:13 26° NE 06:32:13 26° NE 06:34:57 10° E visible
22 Feb 10.6 22:27:26 10° NW 22:34:06 13° NNW 22:40:06 10° N visible
23 Feb 6.4 07:42:09 17° W 07:44:55 45° SSW 07:49:11 10° SE visible
23 Feb 10.6 21:18:30 10° WNW 21:31:25 20° NNW 21:42:53 10° N visible
24 Feb 6.1 06:46:15 65° E 06:46:15 65° E 06:49:46 10° ESE visible
25 Feb 7.7 07:56:32 10° WSW 07:59:26 19° SSW 08:02:36 10° SSE visible
25 Feb 10.8 21:38:49 10° NW 21:47:03 14° NNW 21:54:36 10° N visible
26 Feb 6.6 07:00:13 37° SSW 07:00:13 37° SSW 07:03:47 10° SE visible
27 Feb 8.8 06:04:16 14° SE 06:04:16 14° SE 06:04:50 10° SE visible
28 Feb 7.7 07:14:06 16° SW 07:14:26 16° SSW 07:17:01 10° SSE visible
28 Feb 10.9 20:50:57 10° NW 20:59:51 14° NNW 21:08:21 10° N visible
29 Feb 8.6 06:18:07 14° SSE 06:18:07 14° SSE 06:18:46 10° SSE visible
01 Mar 10.9 21:15:29 10° NNW 21:16:35 10° NNW 21:17:42 10° NNW visible
